Location: Unspecified
(48.5670°N, 0.0000°E)
Time: 09:01:31
(UTC+00:00)

Transit 4A - Pass Details

Date: 25 August 2019
Orbit: 865 x 980 km, 66.8° (Epoch: 17 September)

Event Time Altitude Azimuth Distance (km) Brightness Sun altitude
Rises 01:22:32 0° 325° (NW) 3,652 11.4 -27.9°
Reaches altitude 10° 01:25:12 10° 330° (NNW) 2,689 10.7 -27.8°
Maximum altitude 01:31:20 54° 47° (NE) 1,131 8.6 -27.4°
Drops below altitude 10° 01:37:14 10° 124° (SE) 2,597 10.1 -26.9°
Enters shadow 01:38:43 - 128° (SE) 3,129 10.5 -26.8°
